RYR9EY LICC-LIMC

Flight info

Callsign RYR9EY
Flight time N/A
Altitude 38000
Route BUDIN DCT NERAR DCT TAGEL DCT TORLI DCT MEDAL DCT GILIO DCT UPDIN DCT SPEZI DCT IDONA DCT MEBUR
Aircraft B38M/M-SADE3FGIJ1LRWY/SB1

Departure

Time 2026-05-01 14:59
Airport Catania-Fontanarossa Airport (LICC)

Arrival

Time N/A
Airport Milan Malpensa International Airport (LIMC)
Time Latitude Longitude Altitude Speed Heading
2026-05-01 14:20 37.46936 15.06864 48 ft 0 kts 354°
2026-05-01 14:38 37.46928 15.06865 53 ft 4 kts 352°
2026-05-01 14:38 37.46903 15.06873 51 ft 4 kts 336°
2026-05-01 14:39 37.46881 15.06891 51 ft 4 kts 311°
2026-05-01 14:39 37.46869 15.06919 52 ft 4 kts 276°
2026-05-01 14:39 37.46869 15.06932 50 ft 1 kts 264°
2026-05-01 14:43 37.46868 15.06923 51 ft 3 kts 264°
2026-05-01 14:43 37.46864 15.06869 51 ft 10 kts 264°
2026-05-01 14:44 37.46855 15.06753 52 ft 17 kts 264°
2026-05-01 14:44 37.46823 15.06389 53 ft 23 kts 264°
2026-05-01 14:44 37.46807 15.06199 48 ft 21 kts 264°
2026-05-01 14:45 37.46790 15.06007 50 ft 23 kts 264°
2026-05-01 14:45 37.46766 15.05710 51 ft 14 kts 264°
2026-05-01 14:45 37.46758 15.05617 52 ft 10 kts 263°
2026-05-01 14:46 37.46751 15.05544 53 ft 3 kts 263°
2026-05-01 14:46 37.46747 15.05492 50 ft 5 kts 263°
2026-05-01 14:46 37.46743 15.05451 53 ft 0 kts 264°
2026-05-01 14:49 37.46743 15.05450 53 ft 1 kts 264°
2026-05-01 14:50 37.46741 15.05427 53 ft 0 kts 264°
2026-05-01 14:54 37.46741 15.05415 53 ft 3 kts 264°
2026-05-01 14:54 37.46737 15.05377 53 ft 6 kts 264°
2026-05-01 14:55 37.46725 15.05321 52 ft 7 kts 232°
2026-05-01 14:55 37.46684 15.05269 50 ft 9 kts 221°
2026-05-01 14:55 37.46665 15.05249 53 ft 0 kts 221°
2026-05-01 14:57 37.46643 15.05225 49 ft 9 kts 221°
2026-05-01 14:57 37.46582 15.05178 53 ft 9 kts 173°
2026-05-01 14:58 37.46554 15.05235 53 ft 10 kts 78°
2026-05-01 14:58 37.46569 15.05358 51 ft 23 kts 84°
2026-05-01 14:58 37.46615 15.05926 54 ft 106 kts 83°
2026-05-01 14:58 37.46716 15.07137 124 ft 165 kts 85°
2026-05-01 14:59 37.46821 15.08652 895 ft 176 kts 85°
2026-05-01 14:59 37.46969 15.10170 2048 ft 180 kts 80°
2026-05-01 14:59 37.47219 15.11822 2643 ft 204 kts 79°
2026-05-01 14:59 37.47494 15.13672 3180 ft 226 kts 78°
2026-05-01 15:00 37.48081 15.17757 4740 ft 242 kts 76°
2026-05-01 15:00 37.48374 15.19838 5545 ft 247 kts 76°
2026-05-01 15:00 37.48676 15.21994 6321 ft 254 kts 76°
2026-05-01 15:01 37.48985 15.24211 7043 ft 261 kts 76°
2026-05-01 15:01 37.49307 15.26484 7752 ft 265 kts 74°
2026-05-01 15:01 37.50072 15.28567 8498 ft 262 kts 44°
2026-05-01 15:01 37.51437 15.30037 9428 ft 262 kts 29°
2026-05-01 15:02 37.52993 15.31370 10012 ft 279 kts 28°
2026-05-01 15:02 37.54090 15.32279 10367 ft 291 kts 27°
2026-05-01 15:02 37.56463 15.34200 11035 ft 314 kts 27°
2026-05-01 15:02 37.58343 15.35700 11697 ft 324 kts 27°
2026-05-01 15:03 37.60252 15.37212 12612 ft 325 kts 26°
2026-05-01 15:03 37.62184 15.38733 13435 ft 330 kts 26°
2026-05-01 15:03 37.64139 15.40270 14225 ft 333 kts 25°
2026-05-01 15:03 37.66118 15.41824 14920 ft 338 kts 25°
2026-05-01 15:04 37.68128 15.43404 15585 ft 343 kts 25°
2026-05-01 15:04 37.70249 15.44730 16204 ft 336 kts
2026-05-01 15:04 37.72527 15.45040 16819 ft 327 kts 348°
2026-05-01 15:04 37.74722 15.44420 17411 ft 324 kts 336°
2026-05-01 15:05 37.76871 15.43518 18065 ft 326 kts 335°
2026-05-01 15:05 37.79016 15.42545 18688 ft 329 kts 333°
2026-05-01 15:05 37.81166 15.41525 19237 ft 332 kts 333°
2026-05-01 15:05 37.83325 15.40477 19814 ft 333 kts 332°
2026-05-01 15:06 37.85494 15.39408 20380 ft 335 kts 332°
2026-05-01 15:06 37.87671 15.38325 20949 ft 337 kts 331°
2026-05-01 15:06 37.89859 15.37230 21520 ft 339 kts 331°
2026-05-01 15:06 37.92059 15.36127 22096 ft 341 kts 330°
2026-05-01 15:07 37.94247 15.35030 22650 ft 343 kts 330°
2026-05-01 15:07 37.96502 15.33898 23219 ft 344 kts 330°
2026-05-01 15:07 37.98700 15.32793 23763 ft 346 kts 330°
2026-05-01 15:07 38.00950 15.31661 24191 ft 349 kts 330°
2026-05-01 15:08 38.03217 15.30521 24690 ft 351 kts 330°
2026-05-01 15:08 38.05497 15.29372 25158 ft 354 kts 329°
2026-05-01 15:08 38.07790 15.28216 25738 ft 354 kts 329°
2026-05-01 15:08 38.10096 15.27084 26228 ft 356 kts 329°
2026-05-01 15:09 38.12407 15.25900 26538 ft 361 kts 329°
2026-05-01 15:09 38.14742 15.24713 27053 ft 362 kts 329°
2026-05-01 15:09 38.17087 15.23524 27474 ft 364 kts 329°
2026-05-01 15:09 38.19445 15.22331 27908 ft 366 kts 329°
2026-05-01 15:10 38.21822 15.21127 28304 ft 369 kts 329°
2026-05-01 15:10 38.26622 15.18696 29073 ft 374 kts 329°
2026-05-01 15:10 38.29044 15.17468 29445 ft 376 kts 328°
2026-05-01 15:11 38.31477 15.16233 29814 ft 378 kts 328°
2026-05-01 15:11 38.36404 15.13730 30478 ft 383 kts 328°
2026-05-01 15:11 38.38886 15.12468 30779 ft 385 kts 329°
2026-05-01 15:12 38.41382 15.11198 31068 ft 387 kts 329°
2026-05-01 15:12 38.46411 15.08630 31649 ft 390 kts 328°
2026-05-01 15:12 38.48706 15.06892 31840 ft 381 kts 315°
2026-05-01 15:13 38.55113 15.00757 32834 ft 383 kts 317°
2026-05-01 15:14 38.59358 14.96647 33589 ft 382 kts 317°
2026-05-01 15:14 38.61472 14.94593 33966 ft 381 kts 317°
2026-05-01 15:14 38.65689 14.90489 34587 ft 381 kts 317°
2026-05-01 15:15 38.69922 14.86362 35077 ft 384 kts 318°
2026-05-01 15:15 38.74175 14.82210 35545 ft 385 kts 318°
2026-05-01 15:16 38.78454 14.78027 35999 ft 388 kts 318°
2026-05-01 15:16 38.82750 14.73820 36437 ft 390 kts 318°
2026-05-01 15:17 38.87069 14.69582 36859 ft 391 kts 318°
2026-05-01 15:18 38.93577 14.63188 37478 ft 394 kts 319°
2026-05-01 15:18 38.95748 14.61051 37679 ft 394 kts 319°
2026-05-01 15:19 39.02256 14.54635 38162 ft 396 kts 319°
2026-05-01 15:19 39.08789 14.48179 38159 ft 394 kts 319°
2026-05-01 15:20 39.15303 14.41726 38159 ft 394 kts 319°
2026-05-01 15:21 39.19645 14.37416 38160 ft 394 kts 319°
2026-05-01 15:21 39.23983 14.33104 38160 ft 393 kts 319°
2026-05-01 15:22 39.30495 14.26659 38161 ft 394 kts 321°
2026-05-01 15:22 39.34920 14.22493 38163 ft 394 kts 321°
2026-05-01 15:23 39.39342 14.18306 38163 ft 394 kts 321°
2026-05-01 15:23 39.43767 14.14107 38166 ft 395 kts 321°
2026-05-01 15:24 39.48195 14.09898 38165 ft 395 kts 321°
2026-05-01 15:24 39.52629 14.05677 38170 ft 396 kts 320°
2026-05-01 15:25 39.57068 14.01444 38170 ft 397 kts 320°
2026-05-01 15:25 39.61516 13.97195 38170 ft 397 kts 320°
2026-05-01 15:26 39.65967 13.92937 38174 ft 398 kts 320°
2026-05-01 15:26 39.70428 13.88662 38177 ft 399 kts 320°
2026-05-01 15:27 39.74894 13.84376 38177 ft 400 kts 320°
2026-05-01 15:28 39.81606 13.77920 38179 ft 400 kts 320°
2026-05-01 15:28 39.86081 13.73607 38178 ft 401 kts 320°
2026-05-01 15:29 39.92816 13.67103 38188 ft 403 kts 321°
2026-05-01 15:30 40.01084 13.59094 38184 ft 406 kts 321°
2026-05-01 15:31 40.15455 13.45117 38195 ft 409 kts 321°
2026-05-01 15:32 40.24595 13.36190 38195 ft 411 kts 321°
2026-05-01 15:34 40.38396 13.22743 38199 ft 413 kts 322°